"TOA5","AWS1","CR1000","7964","CR1000.Std.14","CPU:AWS1_114.CR1","64363","TBL110"
"TIMESTAMP","RECORD","Wind_spd_WVc(1)","Wind_spd_WVc(2)","Air_Temp_Avg","Humidity_Avg","SW_upper_Wm2_Avg","Rain_Tot","Press_Avg","Issui_Tot","Depth_cm","SR50A_Raw","Quality","Ground_Temp_Avg(1)","Ground_Temp_Avg(2)","SW_lower_Wm2_Avg","Albedo_Avg","SWC_per(1)","SWC_per(2)","Period(1)","Period(2)"
"TS","RN","","","","","","","","","","","","","","","","","","",""
"","","WVc","WVc","Avg","Avg","Avg","Tot","Avg","Tot","Smp","Smp","Smp","Avg","Avg","Avg","Avg","Smp","Smp","Smp","Smp"
"2017-11-14 00:00:00",314413,0.073,297.7,5.236,85.7,0,0,867.4066,0,2.406,3.127,227,5.212,6.347,0,0,51.88,59.44,33.76,35.55
"2017-11-14 00:10:00",314414,0.087,158.1,5.019,87.4,0,0,867.3729,0,1.487,3.138,208,5.227,6.352,0,0,51.88,59.44,33.76,35.55
"2017-11-14 00:20:00",314415,0.46,125.5,4.812,87.7,0,0,867.1707,0,1.875,3.129,224,5.238,6.363,0.2501751,0,51.88,59.44,33.76,35.55
"2017-11-14 00:30:00",314416,0.498,111.5,5.775,82.2,0,0,867.4045,0,1.65,3.128,211,5.249,6.375,0.8036171,0,51.88,59.44,33.76,35.55
"2017-11-14 00:40:00",314417,0.521,132.5,6.298,77.79,0,0,867.4045,0,1.619,3.129,219,5.255,6.383,0.629265,0,51.88,59.44,33.76,35.55
"2017-11-14 00:50:00",314418,0.713,141.8,6.465,75.92,0,0,867.4066,0,1.628,3.126,218,5.25,6.386,0.3298006,0,51.88,59.44,33.76,35.55
"2017-11-14 01:00:00",314419,0.602,129.9,6.561,75.04,0,0,867.3967,0,1.627,3.126,216,5.248,6.388,0.05307165,0,51.88,59.38,33.76,35.54
"2017-11-14 01:10:00",314420,0.283,51.23,6.541,74.23,0,0,867.3798,0,0.867,3.134,225,5.237,6.387,0,0,51.88,59.44,33.76,35.55
"2017-11-14 01:20:00",314421,0.408,7.016,6.572,73.04,0,0,867.3024,0,1.934,3.122,200,5.246,6.388,0.02274502,0,51.88,59.44,33.76,35.55
"2017-11-14 01:30:00",314422,0.282,28.25,6.783,70.43,0,0,867.1854,0,1.805,3.124,207,5.236,6.38,0.1099343,0,51.88,59.44,33.76,35.55
"2017-11-14 01:40:00",314423,0.389,91.8,6.709,69.86,0,0,867.1555,0,1.679,3.125,201,5.243,6.383,0.01137251,0,51.82,59.38,33.75,35.54
"2017-11-14 01:50:00",314424,0.255,149.2,6.418,70.93,0,0,866.9321,0,1.642,3.129,201,5.253,6.378,0,0,51.82,59.44,33.75,35.55
"2017-11-14 02:00:00",314425,0.126,145.8,6.049,72.21,0,0,866.8177,0,1.088,3.134,202,5.263,6.388,0.01137251,0,51.88,59.44,33.76,35.55
"2017-11-14 02:10:00",314426,0.43,160.2,5.354,74.72,0,0,866.6796,0,1.879,3.132,201,5.263,6.388,0,0,51.88,59.38,33.76,35.54
"2017-11-14 02:20:00",314427,0.31,144.9,5.754,71.41,0,0,866.6522,0,1.516,3.13,205,5.263,6.387,0.2464044,0,51.82,59.38,33.75,35.54
"2017-11-14 02:30:00",314428,0.462,169.6,6.51,68.19,0,0,866.6697,0,1.118,3.132,211,5.263,6.388,0.6406513,0,51.82,59.38,33.75,35.54
"2017-11-14 02:40:00",314429,0.174,259.4,6.416,68.69,0,0,866.8467,0,1.066,3.133,207,5.263,6.391,0,0,51.88,59.38,33.76,35.54
"2017-11-14 02:50:00",314430,0.224,142.5,6.194,70.05,0,0,866.8101,0,0.973,3.14,209,5.263,6.388,0,0,51.82,59.38,33.75,35.54
"2017-11-14 03:00:00",314431,0.456,155.5,4.838,76.36,0,0,866.5205,0,1.372,3.138,206,5.263,6.388,0,0,51.88,59.38,33.76,35.54
"2017-11-14 03:10:00",314432,0.555,145.1,5.149,75.57,0,0,866.3192,0,1.711,3.131,211,5.263,6.388,0.06444422,0,51.82,59.38,33.75,35.54
"2017-11-14 03:20:00",314433,0.651,142.8,5.712,73.71,0,0,866.221,0,1.483,3.133,200,5.263,6.388,0.1592151,0,51.82,59.38,33.75,35.54
"2017-11-14 03:30:00",314434,0.77,155.9,5.476,75.25,0,0,866.1293,0,1.541,3.13,204,5.261,6.388,0.1781693,0,51.82,59.32,33.75,35.52
"2017-11-14 03:40:00",314435,0.796,147,5.868,73.79,0,0,866.0092,0,1.533,3.133,200,5.263,6.39,0.1440518,0,51.88,59.38,33.76,35.54
"2017-11-14 03:50:00",314436,0.661,154.4,5.826,74.38,0,0,865.9416,0,1.467,3.13,205,5.263,6.388,0.08718923,0,51.82,59.38,33.75,35.54
"2017-11-14 04:00:00",314437,0.819,159.4,6.37,71.42,0,0,865.7874,0,1.652,3.126,210,5.258,6.387,0.1895418,0,51.82,59.38,33.75,35.54
"2017-11-14 04:10:00",314438,0.543,157.5,6.636,69.51,0,0,865.8405,0,1.468,3.13,213,5.258,6.38,0.1743785,0,51.82,59.38,33.75,35.54
"2017-11-14 04:20:00",314439,0.379,142.2,5.697,73.82,0,0,865.7131,0,2.038,3.128,222,5.231,6.387,0,0,51.82,59.38,33.75,35.54
"2017-11-14 04:30:00",314440,0.426,125.7,5.603,74.24,0,0,865.9232,0,1.502,3.135,210,5.195,6.39,0,0,51.82,59.38,33.75,35.54
"2017-11-14 04:40:00",314441,0.583,137.9,5.627,73.87,0.03931627,0,865.9723,0,1.746,3.127,206,5.187,6.385,0.276731,0.129,51.82,59.38,33.75,35.54
"2017-11-14 04:50:00",314442,0.686,154,6.795,67.58,0.6605133,0,866.1808,0,1.303,3.128,208,5.183,6.352,0.9060099,1.413,51.82,59.32,33.75,35.52
"2017-11-14 05:00:00",314443,0.706,147.3,6.793,67.96,0,0,866.1688,0,2.692,3.115,232,5.208,6.343,0.1326793,0,51.82,59.32,33.75,35.52
"2017-11-14 05:10:00",314444,0.633,148,7.086,67.31,0,0,866.0842,0,3.08,3.109,256,5.224,6.341,0.1819602,0,51.82,59.32,33.75,35.52
"2017-11-14 05:20:00",314445,0.712,144.6,7.095,67.64,0,0,865.9643,0,3.485,3.105,315,5.247,6.373,0,0,51.88,59.32,33.76,35.52
"2017-11-14 05:30:00",314446,0.467,151.4,6.964,69,0,0,865.6911,0,3.558,3.105,252,5.257,6.41,0,0,51.88,59.32,33.76,35.52
"2017-11-14 05:40:00",314447,0.568,153.1,7.253,69.15,0,0,865.6414,0,3.485,3.105,237,5.254,6.436,0.07202589,0,51.82,59.32,33.75,35.52
"2017-11-14 05:50:00",314448,0.299,151.7,7.179,70.24,0,0,865.6569,0,3.057,3.109,238,5.247,6.44,0,0,51.88,59.32,33.76,35.52
"2017-11-14 06:00:00",314449,0.324,129.2,6.955,71.97,0,0,865.6734,0,3.507,3.106,235,5.258,6.46,0,0,51.82,59.32,33.75,35.52
"2017-11-14 06:10:00",314450,0.57,143.3,6.952,72.29,0,0,865.5237,0,2.927,3.112,226,5.254,6.451,0,0,51.82,59.32,33.75,35.52
"2017-11-14 06:20:00",314451,0.605,144.2,7.05,71.97,0,0,865.4921,0,3.04,3.109,235,5.249,6.455,0.08718418,0,51.82,59.32,33.75,35.52
"2017-11-14 06:30:00",314452,0.518,146.2,7.133,71.7,0.03145038,0,865.5363,0,3.04,3.11,235,5.243,6.449,0,0,51.82,59.32,33.75,35.52
"2017-11-14 06:40:00",314453,0.537,134.5,7.157,70.43,2.861956,0,865.1973,0,3.047,3.109,234,5.238,6.447,0.3980007,0.132,51.82,59.32,33.75,35.52
"2017-11-14 06:50:00",314454,0.251,135.2,7.334,68.74,4.835317,0,865.3763,0,3.058,3.108,230,5.223,6.442,0.5496054,0.104,51.77,59.32,33.73,35.52
"2017-11-14 07:00:00",314455,0.467,148.6,7.487,66.35,8.215731,0,865.5406,0,3.046,3.106,244,5.186,6.428,1.307619,0.139,51.82,59.32,33.75,35.52
"2017-11-14 07:10:00",314456,0.361,137.1,7.708,65.32,18.47494,0,865.6375,0,3.203,3.105,237,5.167,6.422,3.225359,0.176,51.77,59.32,33.73,35.52
"2017-11-14 07:20:00",314457,0.125,113.7,7.672,66.11,18.52127,0,865.6395,0,3.734,3.101,311,5.133,6.409,2.47481,0.13,51.82,59.32,33.75,35.52
"2017-11-14 07:30:00",314458,0.269,131,6.964,73.93,10.82878,0,865.7617,0,5.166,3.09,369,5.111,6.406,1.553833,0.141,51.82,59.32,33.75,35.52
"2017-11-14 07:40:00",314459,0.188,150.4,6.356,81.4,26.32227,0,865.7196,0,5.607,3.09,275,5.101,6.396,3.607804,0.138,51.82,59.32,33.75,35.52
"2017-11-14 07:50:00",314460,0.524,148.4,6.171,83.8,31.49394,0,865.6353,0,2.79,3.115,238,5.117,6.387,4.471739,0.144,51.82,59.32,33.75,35.52
"2017-11-14 08:00:00",314461,0.849,149.2,6.674,80,30.05114,0,865.808,0,1.099,3.131,220,5.151,6.386,5.002226,0.167,51.77,59.32,33.73,35.52
"2017-11-14 08:10:00",314462,0.603,141.2,6.557,82.9,24.29319,0.5,865.8818,0,-33.1,3.471,200,5.169,6.384,3.891876,0.16,51.77,59.26,33.73,35.51
"2017-11-14 08:20:00",314463,0.695,164.8,6.505,83.8,40.9502,0,865.8038,0,-32.55,3.464,198,5.186,6.383,5.657865,0.138,51.82,59.26,33.75,35.51
"2017-11-14 08:30:00",314464,0.947,145.2,6.501,85.5,47.91055,0,865.5195,0,7.701,3.066,288,5.205,6.383,6.457431,0.135,51.82,59.26,33.75,35.51
"2017-11-14 08:40:00",314465,1.038,148.3,6.744,84.6,48.51952,0,865.3784,0,7.123,3.071,275,5.218,6.385,6.544561,0.135,51.82,59.26,33.75,35.51
"2017-11-14 08:50:00",314466,0.959,145.9,6.833,84.8,49.24289,0,865.3742,0,7.234,3.068,478,5.218,6.385,6.449848,0.132,51.77,59.26,33.73,35.51
"2017-11-14 09:00:00",314467,0.902,160.7,7.093,82.5,39.13443,0,865.3636,0,7.406,3.067,344,5.229,6.388,5.453233,0.139,51.77,59.32,33.73,35.52
"2017-11-14 09:10:00",314468,0.572,93.4,7.023,83.9,27.54815,0,865.3826,0,6.624,3.074,307,5.262,6.39,3.831336,0.139,51.82,59.26,33.75,35.51
"2017-11-14 09:20:00",314469,0.411,87,6.919,85.2,16.80232,0,865.5805,0,6.943,3.073,261,5.248,6.389,2.285142,0.137,51.77,59.26,33.73,35.51
"2017-11-14 09:30:00",314470,0.314,39.2,6.683,87.3,13.19801,0,865.787,0,7.142,3.072,254,5.262,6.386,1.811416,0.138,51.77,59.26,33.73,35.51
"2017-11-14 09:40:00",314471,0.505,134.6,6.424,89.1,31.24192,0.5,865.528,0,8.98,3.055,277,5.288,6.383,3.664498,0.119,51.77,59.26,33.73,35.51
"2017-11-14 09:50:00",314472,0.982,147.8,6.354,89.5,36.00537,0,865.3679,0,8.91,3.055,255,5.295,6.374,4.308714,0.12,51.77,59.26,33.73,35.51
"2017-11-14 10:00:00",314473,1.075,139.2,6.439,89.3,38.98059,0,865.351,0,8.54,3.058,251,5.303,6.373,4.555032,0.117,51.77,59.26,33.73,35.51
"2017-11-14 10:10:00",314474,0.822,136.8,6.545,89.5,42.38028,0.5,865.3826,0,7.774,3.066,249,5.302,6.379,4.816511,0.114,51.77,59.26,33.73,35.51
"2017-11-14 10:20:00",314475,0.236,78,6.529,91.6,46.96693,0,865.3848,0,8.66,3.057,265,5.288,6.381,4.945355,0.105,51.77,59.26,33.73,35.51
"2017-11-14 10:30:00",314476,0.543,114.8,6.529,92.1,54.6192,0,865.3594,0,9.01,3.054,257,5.257,6.379,5.502419,0.101,51.77,59.26,33.73,35.51
"2017-11-14 10:40:00",314477,0.489,107.1,6.429,92.6,65.85982,0,865.1593,0,8.73,3.057,256,5.293,6.376,6.7416,0.102,51.77,59.26,33.73,35.51
"2017-11-14 10:50:00",314478,0.36,130.6,6.437,94.2,72.89896,0,865.1277,0,8.86,3.056,251,5.381,6.366,7.359296,0.101,51.77,59.26,33.73,35.51
"2017-11-14 11:00:00",314479,0.145,133.3,6.483,94.7,66.48866,0.5,864.9024,0,7.75,3.066,245,5.389,6.352,6.684756,0.1,51.77,59.26,33.73,35.51
"2017-11-14 11:10:00",314480,0.01,112,6.584,94.6,73.31164,0,864.6875,0,7.095,3.072,253,5.371,6.343,7.272136,0.099,51.77,59.2,33.73,35.5
"2017-11-14 11:20:00",314481,0,0,6.771,93.8,75.2139,0,864.4412,0,7.254,3.069,245,5.35,6.342,7.344137,0.097,51.77,59.26,33.73,35.51
"2017-11-14 11:30:00",314482,0,0,6.874,95.1,58.746,0.5,864.3506,0,7.504,3.067,244,5.399,6.342,5.263677,0.089,51.82,59.26,33.75,35.51
"2017-11-14 11:40:00",314483,0,0,6.793,95.9,61.72516,0,864.1315,0,7.707,3.065,237,5.435,6.342,5.089358,0.083,51.77,59.26,33.73,35.51
"2017-11-14 11:50:00",314484,0.036,359.1,6.654,96.2,41.71606,0.5,863.9482,0,7.804,3.065,240,5.476,6.342,3.372695,0.079,51.82,59.26,33.75,35.51
"2017-11-14 12:00:00",314485,0.25,305.2,6.437,96.7,24.61539,0.5,863.8682,0.5,7.59,3.069,258,5.462,6.342,1.928878,0.077,51.82,59.26,33.75,35.51
"2017-11-14 12:10:00",314486,0.473,307,6.221,98.2,42.14447,0.5,863.8682,1,7.335,3.072,277,5.439,6.342,3.872914,0.092,51.88,59.2,33.76,35.5
"2017-11-14 12:20:00",314487,0.549,305.2,6.234,99.9,53.86065,0.5,863.8682,0,7.59,3.069,272,5.5,6.342,4.926407,0.092,51.88,59.26,33.76,35.51
"2017-11-14 12:30:00",314488,0.494,322.3,6.278,100,34.40573,0.5,863.8682,0.5,7.335,3.072,275,5.525,6.342,3.285535,0.096,52.05,59.26,33.8,35.51
"2017-11-14 12:40:00",314489,1.004,315.5,6.101,99.5,52.60296,0.5,863.8704,0.5,6.926,3.077,372,5.55,6.342,4.998409,0.095,52.16,59.26,33.83,35.51
"2017-11-14 12:50:00",314490,1.177,319.8,5.98,91.7,48.43686,0.5,863.8177,0.5,7.205,3.074,311,5.565,6.342,5.096937,0.105,52.38,59.26,33.88,35.51
"2017-11-14 13:00:00",314491,1.135,326.9,6.003,86,44.82099,0.5,863.6176,0,0.934,3.137,230,5.59,6.342,5.142412,0.115,52.6,59.32,33.94,35.52
"2017-11-14 13:10:00",314492,1.026,324.1,5.849,86.8,37.93906,0.5,863.5986,0.5,2.144,3.126,243,5.6,6.342,4.024496,0.105,52.88,59.32,34,35.52
"2017-11-14 13:20:00",314493,0.936,289.8,5.669,88.1,31.15538,0,863.6154,0.5,-1.193,3.16,189,5.622,6.342,2.849738,0.092,53.16,59.38,34.07,35.54
"2017-11-14 13:30:00",314494,1.143,311.9,5.541,89.1,27.28405,1,863.6176,0.5,2.897,3.12,251,5.653,6.342,2.432888,0.089,53.39,59.5,34.13,35.56
"2017-11-14 13:40:00",314495,1.067,292.9,5.316,89.2,25.05558,0.5,863.6218,0.5,1.202,3.138,338,5.649,6.358,2.357097,0.094,53.61,59.56,34.18,35.58
"2017-11-14 13:50:00",314496,0.95,240.7,5.309,90.2,26.34102,0.5,863.4722,1,-0.413,3.153,198,5.652,6.363,2.633757,0.1,54.07,59.73,34.29,35.62
"2017-11-14 14:00:00",314497,1.432,65.67,5.456,88.6,19.94248,0.5,863.2911,0,-0.111,3.151,243,5.641,6.356,1.894792,0.096,54.69,59.85,34.44,35.64
"2017-11-14 14:10:00",314498,0.727,139.2,5.204,90.4,26.29402,0,863.0341,0,5.158,3.099,429,5.614,6.367,2.463242,0.094,54.86,60.03,34.48,35.69
"2017-11-14 14:20:00",314499,1.56,143.8,5.044,91.8,35.09169,0,862.7034,0,-35.15,3.499,213,5.677,6.38,3.513118,0.1,54.86,60.21,34.48,35.73
"2017-11-14 14:30:00",314500,0.901,63.43,5.222,89.4,35.80091,0.5,862.8762,0,-2.149,3.171,227,5.784,6.402,3.831643,0.107,54.63,60.33,34.42,35.75
"2017-11-14 14:40:00",314501,0.428,80.3,5.233,90.5,33.89601,0,862.8614,0,-1.3,3.163,252,5.812,6.412,3.483119,0.103,54.46,60.5,34.38,35.79
"2017-11-14 14:50:00",314502,0.512,13.74,5.321,88.8,24.57754,0,862.8762,0,-35.87,3.504,204,5.798,6.425,2.543343,0.104,54.41,60.56,34.37,35.81
"2017-11-14 15:00:00",314503,0.321,193.3,5.572,85.8,25.19253,0,862.9393,0,-2.328,3.173,217,5.812,6.438,2.691351,0.107,54.35,60.74,34.36,35.85
"2017-11-14 15:10:00",314504,0.039,190,5.253,93.2,19.61001,0,863.1057,0,-2.071,3.17,222,5.81,6.422,2.100022,0.107,54.29,60.74,34.34,35.85
"2017-11-14 15:20:00",314505,0.328,176.2,5.191,95.1,12.97766,0,863.11,0,-2.379,3.174,200,5.829,6.423,1.34189,0.104,54.29,60.86,34.34,35.88
"2017-11-14 15:30:00",314506,0.32,138.4,5.106,98.4,9.844542,0,862.7751,0,-1.398,3.165,206,5.861,6.427,1.000755,0.101,54.24,60.98,34.33,35.9
"2017-11-14 15:40:00",314507,0.482,295.6,5.029,99.6,4.827882,0,863.0952,0,-1.07,3.162,213,5.861,6.425,0.504165,0.106,54.18,60.98,34.32,35.9
"2017-11-14 15:50:00",314508,0.165,108.3,4.976,100,6.196015,0,862.7393,0.5,2.108,3.131,338,5.861,6.422,0.5761861,0.092,54.18,61.1,34.32,35.93
"2017-11-14 16:00:00",314509,0.157,277.9,4.908,100,4.839602,0,862.655,0,0.673,3.145,212,5.901,6.42,0.6178766,0.136,54.12,61.16,34.3,35.94
"2017-11-14 16:10:00",314510,0.324,299.8,4.869,100,2.056162,0.5,863.2469,0.5,0.467,3.148,222,5.944,6.423,0.4397201,0.219,54.12,61.16,34.3,35.94
"2017-11-14 16:20:00",314511,0.542,316.9,4.793,100,4.489802,0,862.9709,0,0.541,3.147,225,5.948,6.425,0.5875648,0.129,54.12,61.28,34.3,35.97
"2017-11-14 16:30:00",314512,0.645,197.5,4.756,100,16.10377,0,863.0615,0,0.565,3.147,269,5.951,6.429,2.47918,0.153,54.12,61.28,34.3,35.97
"2017-11-14 16:40:00",314513,0.828,171.9,4.682,100,20.55815,0,862.9373,0,0.539,3.148,246,5.95,6.428,3.214578,0.155,54.12,61.4,34.3,36
"2017-11-14 16:50:00",314514,0.776,178.8,4.551,100,5.114985,0,862.8572,0,0.233,3.152,210,5.951,6.43,0.7846938,0.157,54.07,61.4,34.29,36
"2017-11-14 17:00:00",314515,0.886,190.6,4.427,99.5,0.1100849,0,862.8361,0,0.004,3.155,202,5.953,6.429,0,0,54.07,61.46,34.29,36.01
"2017-11-14 17:10:00",314516,0.811,166.6,4.283,98,0,0,862.9983,0,0.255,3.153,227,5.953,6.428,0,0,54.07,61.52,34.29,36.02
"2017-11-14 17:20:00",314517,0.734,174.5,4.297,94,0,0,863.2574,0,0.434,3.15,237,5.955,6.43,0.1895418,0,54.07,61.52,34.29,36.02
"2017-11-14 17:30:00",314518,0.447,177.2,4.466,88.3,0.04324789,0,863.5775,0,0.207,3.152,232,5.955,6.432,0.5041813,0.225,54.07,61.52,34.29,36.02
"2017-11-14 17:40:00",314519,0.556,341.2,4.649,84.9,0,0,863.6176,0,0.209,3.151,222,5.955,6.432,0.8377749,0,54.01,61.52,34.27,36.02
"2017-11-14 17:50:00",314520,0.577,342.3,4.752,83.3,0,0,863.8493,0,0.26,3.15,222,5.955,6.441,0.9439182,0,53.95,61.58,34.26,36.04
"2017-11-14 18:00:00",314521,0.673,353.6,4.874,81.8,0,0,863.9146,0,0.44,3.147,254,5.955,6.442,1.027317,0,53.95,61.58,34.26,36.04
"2017-11-14 18:10:00",314522,0.635,39.59,4.965,81.5,0,0,863.9908,0,0.211,3.15,220,5.955,6.449,0.9363366,0,53.95,61.52,34.26,36.02
"2017-11-14 18:20:00",314523,0.703,313.2,4.93,81.6,0,0,863.8971,0,0.363,3.148,238,5.955,6.481,0.9135916,0,53.9,61.58,34.25,36.04
"2017-11-14 18:30:00",314524,0.312,250,4.879,81.7,0,0,863.9122,0,-0.395,3.156,221,5.955,6.533,0.8756832,0,53.9,61.52,34.25,36.02
"2017-11-14 18:40:00",314525,0.233,288.9,4.86,81.7,0,0,863.9793,0,0.135,3.151,233,5.955,6.553,1.019735,0,53.84,61.52,34.23,36.02
"2017-11-14 18:50:00",314526,0.46,255.8,4.898,81.1,0,0,863.8168,0,0.036,3.151,225,5.955,6.566,1.118297,0,53.78,61.52,34.22,36.02
"2017-11-14 19:00:00",314527,0.531,226.5,5.044,79.53,0,0,863.4711,0,0.11,3.151,240,5.955,6.547,1.144833,0,53.78,61.58,34.22,36.04
"2017-11-14 19:10:00",314528,0.287,260,4.677,81.3,0,0,863.5172,0,-0.049,3.157,223,5.955,6.556,0.6633964,0,53.78,61.52,34.22,36.02
"2017-11-14 19:20:00",314529,0.523,256.9,4.587,80.2,0,0,863.4989,0,-0.348,3.158,211,5.955,6.554,0.8036573,0,53.73,61.52,34.21,36.02
"2017-11-14 19:30:00",314530,0.483,195.4,4.615,77.65,0,0,863.4582,0,0.058,3.152,228,5.955,6.56,0.7581673,0,53.73,61.52,34.21,36.02
"2017-11-14 19:40:00",314531,0.389,203.7,4.926,72.22,0,0,863.2674,0,0.189,3.149,210,5.955,6.561,0.8529382,0,53.67,61.52,34.19,36.02
"2017-11-14 19:50:00",314532,0.799,218.5,5.133,70.56,0.07470091,0,863.1012,0,-0.419,3.156,223,5.956,6.561,0.7809123,0.41,53.67,61.52,34.19,36.02
"2017-11-14 20:00:00",314533,0.389,144.7,4.845,73.21,0.03145302,0,863.1559,0,0.491,3.146,286,5.919,6.561,0.4586912,0.145,53.61,61.52,34.18,36.02
"2017-11-14 20:10:00",314534,0.352,8.95,5.125,71.37,0.3341883,0,863.1454,0,-0.922,3.16,205,5.882,6.561,0.7088864,0.62,53.56,61.52,34.17,36.02
"2017-11-14 20:20:00",314535,0.335,4.978,4.822,73.69,0.6408551,0,863.2191,0,0.065,3.149,241,5.873,6.561,0.3108486,0.179,53.5,61.52,34.15,36.02
"2017-11-14 20:30:00",314536,0.279,50.2,4.941,74.36,0.6841031,0,863.2065,0,-0.603,3.162,235,5.856,6.56,0.3108486,0.212,53.45,61.46,34.14,36.01
"2017-11-14 20:40:00",314537,0.265,15.42,4.639,75.72,1.203078,0,863.4319,0,-0.674,3.16,227,5.837,6.556,0.3335936,0.183,53.45,61.46,34.14,36.01
"2017-11-14 20:50:00",314538,0.145,152.2,3.736,84.7,0.02358976,0,863.4383,0,-0.279,3.162,234,5.847,6.531,0,0,53.39,61.46,34.13,36.01
"2017-11-14 21:00:00",314539,0.135,177.6,3.518,86.7,0,0,863.4531,0,1.432,3.145,335,5.868,6.548,0,0,53.39,61.46,34.13,36.01
"2017-11-14 21:10:00",314540,0.141,231.7,3.639,86.4,0,0,863.4531,0,-36.77,3.524,210,5.869,6.544,0.1705876,0,53.39,61.46,34.13,36.01
"2017-11-14 21:20:00",314541,0.088,139,3.685,84.3,0,0,863.4404,0,1.66,3.142,346,5.869,6.56,0.2691494,0,53.33,61.4,34.11,36
"2017-11-14 21:30:00",314542,0.129,324.7,3.399,85.2,0,0,863.4509,0,-1.162,3.173,200,5.868,6.561,0.1592151,0,53.39,61.4,34.13,36
"2017-11-14 21:40:00",314543,0.305,208.5,4.289,76,0,0,863.3118,0,-2.061,3.174,197,5.784,6.561,1.156205,0,53.33,61.4,34.11,36
"2017-11-14 21:50:00",314544,0.168,135.4,3.647,80.9,0,0,863.2065,0,1.052,3.15,265,5.763,6.561,0.07581673,0,53.28,61.4,34.1,36
"2017-11-14 22:00:00",314545,0.316,177.8,4.003,76.33,0,0,863.139,0,0.457,3.151,262,5.759,6.561,0.7505856,0,53.28,61.4,34.1,36
"2017-11-14 22:10:00",314546,0.118,127.1,3.78,77.53,0,0,862.9473,0,3.578,3.121,369,5.781,6.561,0.2388227,0,53.28,61.34,34.1,35.98
"2017-11-14 22:20:00",314547,0.204,161.8,4.283,73.58,0,0,862.8989,0,3.611,3.118,462,5.782,6.561,0.9439182,0,53.28,61.34,34.1,35.98
"2017-11-14 22:30:00",314548,0.176,352.2,4.688,70.79,0,0,862.8463,0,2.729,3.127,405,5.782,6.561,1.000781,0,53.28,61.34,34.1,35.98
"2017-11-14 22:40:00",314549,0.215,160.3,3.5,78.42,0,0,862.9347,0,3.703,3.12,293,5.782,6.561,0.1516335,0,53.22,61.34,34.08,35.98
"2017-11-14 22:50:00",314550,0.126,212.8,3.794,76.96,0,0,862.9495,0,3.218,3.128,347,5.782,6.561,0.4965996,0,53.22,61.28,34.08,35.97
"2017-11-14 23:00:00",314551,0.135,314.9,3.001,82.8,0,0,862.9895,0,2.428,3.141,228,5.785,6.561,0.1440518,0,53.16,61.34,34.07,35.98
"2017-11-14 23:10:00",314552,0.145,39.16,2.344,88.6,0,0,863.1854,0,3.258,3.132,337,5.801,6.561,0.1667968,0,53.22,61.28,34.08,35.97
"2017-11-14 23:20:00",314553,0.168,43.67,3.117,81.4,0,0,863.2002,0,3.995,3.121,360,5.774,6.561,1.04248,0,53.16,61.28,34.07,35.97
"2017-11-14 23:30:00",314554,0.278,308.7,3.668,76.34,0,0,863.2002,0,5.992,3.098,312,5.734,6.561,1.095552,0,53.16,61.22,34.07,35.96
"2017-11-14 23:40:00",314555,0.555,60.39,3.932,73.77,0,0,863.1012,0,2.045,3.135,258,5.701,6.561,0.7278405,0,53.16,61.22,34.07,35.96
"2017-11-14 23:50:00",314556,0.62,343.2,4.107,71.89,0,0,862.96,0,4.239,3.112,413,5.698,6.564,0.4094147,0,53.16,61.22,34.07,35.96
